Flag for Greece Weather past 2 weeks in Piraeus, Greece

Now
63 °F

Sunny.


Feels Like: 63 °F
Forecast: 46 / 60 °F
Wind: No wind

Location: Elefsis Airport

Current Time: Dec 19, 2014 at 1:05:06 PM

Latest Report: Dec 19, 2014 at 12:20 PM


Visibility: 10 mi

Pressure: 30.18 "Hg

Humidity: 56%

Dew point: 46 °F

Location of PiraeusLocation

Historic Weather in Piraeus — Graph

°F

Piraeus temperature yesterday

Maximum temperature yesterday: 59 °F (at 12:50 PM)
Minimum temperature yesterday: 45 °F (at 3:20 AM)
Average temperature yesterday: 51 °F

Past Weeks' High & Low Weather Summary

 TemperatureHumidityPressure
High70 °F (Dec 4, 2:50 PM)100% (Dec 8, 9:20 AM)30.30 "Hg (Dec 8, 9:20 AM)
Low41 °F (Dec 14, 5:20 AM)48% (Dec 14, 12:20 PM)29.59 "Hg (Dec 8, 11:50 PM)
Average55 °F79%30.01 "Hg
* Reported Dec 4 11:20 AM — Dec 19 11:50 AM, Piraeus, Weather by CustomWeather, © 2014

Note: Actual official high and low records may vary slightly from our data, if they occured in-between our weather recording intervals... More about our weather records

Advertising

Piraeus weather history for previous 24 hours

 ConditionsComfort  
Time TempWeatherWind HumidityBarometerVisibility
11:50 AM
Dec 19
61 °FSunny.No wind52%30.18 "Hg10 mi
10:50 AM59 °FSunny.No wind59%30.21 "Hg10 mi
10:20 AM57 °FPassing clouds.No wind67%30.21 "HgN/A
9:50 AM55 °FPassing clouds.No wind72%30.21 "HgN/A
8:50 AM46 °FPassing clouds.No wind87%30.18 "HgN/A
8:20 AM45 °FPassing clouds.No wind93%30.18 "HgN/A
7:50 AM45 °FSunny.No wind87%30.15 "Hg10 mi
7:20 AM43 °FClear.No wind93%30.15 "Hg10 mi
6:50 AM43 °FPassing clouds.No wind93%30.15 "HgN/A
6:20 AM43 °FClear.No wind93%30.15 "Hg10 mi
5:20 AM43 °FClear.No wind93%30.12 "Hg10 mi
4:50 AM45 °FClear.No wind87%30.12 "Hg10 mi
4:20 AM45 °FClear.No wind87%30.12 "Hg10 mi
3:50 AM45 °FClear.No wind93%30.12 "Hg10 mi
3:20 AM45 °FClear.No wind93%30.12 "Hg10 mi
2:50 AM46 °FPassing clouds.No wind82%30.12 "HgN/A
2:20 AM45 °FPassing clouds.No wind87%30.12 "HgN/A
1:50 AM46 °FPassing clouds.No wind87%30.12 "HgN/A
1:20 AM45 °FPassing clouds.No wind93%30.12 "HgN/A
12:50 AM46 °FPassing clouds.7 mph87%30.12 "HgN/A
12:20 AM46 °FPassing clouds.7 mph87%30.12 "HgN/A
11:50 PM
Dec 18
48 °FPassing clouds.5 mph82%30.12 "HgN/A
11:20 PM46 °FPassing clouds.5 mph87%30.09 "HgN/A
10:20 PM48 °FPassing clouds.7 mph87%30.09 "HgN/A
9:50 PM48 °FPassing clouds.6 mph87%30.09 "HgN/A
9:20 PM48 °FPassing clouds.6 mph87%30.07 "HgN/A
8:50 PM50 °FPassing clouds.6 mph82%30.07 "HgN/A
8:20 PM50 °FPassing clouds.5 mph82%30.07 "HgN/A
7:50 PM50 °FPassing clouds.5 mph82%30.07 "HgN/A
7:20 PM50 °FPassing clouds.6 mph88%30.07 "HgN/A
6:50 PM48 °FPassing clouds.5 mph94%30.04 "HgN/A
6:20 PM50 °FPassing clouds.No wind88%30.04 "HgN/A
5:50 PM52 °FPassing clouds.No wind88%30.04 "HgN/A
5:20 PM55 °FPassing clouds.No wind72%30.01 "HgN/A
4:50 PM57 °FScattered clouds.No wind72%30.01 "HgN/A
4:20 PM59 °FScattered clouds.No wind59%29.98 "HgN/A
3:50 PM59 °FScattered clouds.No wind59%29.98 "HgN/A
3:20 PM55 °FBroken clouds.5 mph82%29.98 "HgN/A
2:50 PM55 °FBroken clouds.5 mph82%29.98 "HgN/A
2:20 PM55 °FDrizzle. Broken clouds.7 mph77%30.01 "HgN/A
1:50 PM55 °FDrizzle. Broken clouds.7 mph77%30.01 "HgN/A
1:20 PM55 °FDrizzle. Broken clouds.8 mph77%30.01 "HgN/A
Weather by CustomWeather, © 2014

See weather overviewHow to use our weather pages